When you browse on this site, cookies collect data to enhance your experience and personalize the content and advertising you see.
Visit our Privacy Policy to learn more. By continuing to use the site, you agree to this use of cookies and data.
  • In Hungary
  • List of Countries
  • For 7 days
  • Water Temperature
  • Weather Map
  • News
  • Weather Widgets
  • user-avatar
    Login

    Hourly Weather Aylesbury

    Today, 7 June, Sunday

    Time Temperature Precipitation Wind Pressure Humidity
    00:00 +6°C° 0 mm 2 mps 744 mmHg 93%
    01:00 +6°C° 0 mm 2 mps 744 mmHg 94%
    02:00 +6°C° 0 mm 2 mps 745 mmHg 95%
    03:00 +5°C° 0 mm 3 mps 745 mmHg 96%
    04:00 +7°C° 0 mm 3 mps 745 mmHg 95%
    05:00 +8°C° 0 mm 3 mps 746 mmHg 94%
    06:00 +8°C° 0 mm 3 mps 746 mmHg 93%
    07:00 +10°C° 0 mm 3 mps 747 mmHg 88%
    08:00 +12°C° 0 mm 3 mps 747 mmHg 83%
    09:00 +13°C° 0 mm 4 mps 748 mmHg 78%
    10:00 +13°C° 0.2 mm 4 mps 748 mmHg 79%
    11:00 +13°C° 0.2 mm 4 mps 748 mmHg 80%
    12:00 +13°C° 0.2 mm 4 mps 748 mmHg 82%
    13:00 +14°C° 0.4 mm 4 mps 749 mmHg 83%
    14:00 +14°C° 0.4 mm 4 mps 749 mmHg 84%
    15:00 +14°C° 0.4 mm 5 mps 749 mmHg 84%
    16:00 +13°C° 0.1 mm 5 mps 750 mmHg 84%
    17:00 +13°C° 0.1 mm 5 mps 750 mmHg 84%
    18:00 +12°C° 0.1 mm 5 mps 750 mmHg 84%
    19:00 +10°C° 0 mm 5 mps 751 mmHg 86%
    20:00 +11°C° 0 mm 4 mps 752 mmHg 88%
    21:00 +10°C° 0 mm 3 mps 752 mmHg 91%
    22:00 +9°C° 0 mm 3 mps 753 mmHg 91%
    23:00 +9°C° 0 mm 3 mps 753 mmHg 91%

    Tomorrow, 8 June, Monday

    Time Temperature Precipitation Wind Pressure Humidity
    00:00 +8°C° 0 mm 3 mps 753 mmHg 91%
    01:00 +8°C° 0 mm 3 mps 753 mmHg 93%
    02:00 +7°C° 0 mm 3 mps 754 mmHg 94%
    03:00 +5°C° 0 mm 3 mps 754 mmHg 96%
    04:00 +5°C° 0 mm 3 mps 754 mmHg 93%
    05:00 +6°C° 0 mm 4 mps 754 mmHg 90%
    06:00 +6°C° 0 mm 4 mps 754 mmHg 88%
    07:00 +7°C° 0 mm 4 mps 755 mmHg 81%
    08:00 +10°C° 0 mm 4 mps 755 mmHg 75%
    09:00 +11°C° 0 mm 4 mps 756 mmHg 69%
    10:00 +12°C° 0 mm 4 mps 756 mmHg 66%
    11:00 +13°C° 0 mm 4 mps 756 mmHg 63%
    12:00 +14°C° 0 mm 4 mps 756 mmHg 60%
    13:00 +14°C° 0 mm 4 mps 756 mmHg 60%
    14:00 +14°C° 0 mm 4 mps 756 mmHg 61%
    15:00 +14°C° 0 mm 4 mps 756 mmHg 62%
    16:00 +13°C° 0 mm 4 mps 756 mmHg 64%
    17:00 +13°C° 0 mm 4 mps 756 mmHg 65%
    18:00 +12°C° 0 mm 4 mps 756 mmHg 67%
    19:00 +11°C° 0 mm 3 mps 756 mmHg 72%
    20:00 +9°C° 0 mm 3 mps 757 mmHg 78%
    21:00 +8°C° 0 mm 2 mps 757 mmHg 83%
    22:00 +7°C° 0 mm 2 mps 757 mmHg 85%
    23:00 +6°C° 0 mm 2 mps 757 mmHg 87%

    Day after tomorrow, 9 June, Tuesday

    Time Temperature Precipitation Wind Pressure Humidity
    00:00 +7°C° 0 mm 1 mps 757 mmHg 88%
    01:00 +6°C° 0 mm 1 mps 757 mmHg 89%
    02:00 +6°C° 0 mm 1 mps 757 mmHg 89%
    03:00 +5°C° 0 mm 1 mps 757 mmHg 89%
    04:00 +6°C° 0 mm 1 mps 757 mmHg 86%
    05:00 +8°C° 0 mm 1 mps 757 mmHg 82%
    06:00 +9°C° 0 mm 1 mps 757 mmHg 79%
    07:00 +10°C° 0 mm 1 mps 758 mmHg 73%
    08:00 +12°C° 0 mm 1 mps 758 mmHg 67%
    09:00 +13°C° 0 mm 2 mps 758 mmHg 62%
    10:00 +14°C° 0 mm 2 mps 758 mmHg 61%
    11:00 +15°C° 0 mm 2 mps 758 mmHg 60%
    12:00 +16°C° 0 mm 1 mps 758 mmHg 60%
    13:00 +16°C° 0 mm 1 mps 758 mmHg 60%
    14:00 +16°C° 0 mm 1 mps 757 mmHg 61%
    15:00 +16°C° 0 mm 1 mps 757 mmHg 61%
    16:00 +16°C° 0 mm 1 mps 757 mmHg 64%
    17:00 +16°C° 0 mm 1 mps 757 mmHg 66%
    18:00 +16°C° 0 mm 1 mps 757 mmHg 69%
    19:00 +15°C° 0 mm 1 mps 757 mmHg 75%
    20:00 +13°C° 0 mm 2 mps 757 mmHg 80%
    21:00 +12°C° 0 mm 2 mps 757 mmHg 85%
    22:00 +10°C° 0 mm 2 mps 757 mmHg 86%
    23:00 +10°C° 0 mm 2 mps 756 mmHg 87%

    10 June, Wednesday

    Time Temperature Precipitation Wind Pressure Humidity
    00:00 +10°C° 0 mm 2 mps 756 mmHg 88%
    01:00 +10°C° 0 mm 2 mps 756 mmHg 90%
    02:00 +9°C° 0 mm 2 mps 756 mmHg 91%
    03:00 +9°C° 0 mm 2 mps 755 mmHg 92%
    04:00 +9°C° 0 mm 2 mps 755 mmHg 91%
    05:00 +10°C° 0 mm 2 mps 755 mmHg 90%
    06:00 +10°C° 0 mm 2 mps 755 mmHg 89%
    07:00 +12°C° 0 mm 2 mps 755 mmHg 86%
    08:00 +13°C° 0 mm 2 mps 755 mmHg 84%
    09:00 +13°C° 0 mm 1 mps 754 mmHg 82%
    10:00 +14°C° 0.2 mm 2 mps 754 mmHg 80%
    11:00 +13°C° 0.2 mm 3 mps 754 mmHg 79%
    12:00 +13°C° 0.2 mm 3 mps 754 mmHg 77%
    13:00 +13°C° 0.4 mm 3 mps 753 mmHg 80%
    14:00 +12°C° 0.4 mm 3 mps 752 mmHg 83%
    15:00 +11°C° 0.4 mm 3 mps 752 mmHg 86%
    16:00 +11°C° 0.1 mm 3 mps 751 mmHg 88%
    17:00 +10°C° 0.1 mm 2 mps 751 mmHg 90%
    18:00 +10°C° 0.1 mm 2 mps 750 mmHg 91%
    19:00 +10°C° 0.4 mm 2 mps 750 mmHg 93%
    20:00 +10°C° 0.4 mm 2 mps 750 mmHg 94%
    21:00 +9°C° 0.4 mm 2 mps 749 mmHg 96%
    22:00 +9°C° 0.6 mm 3 mps 749 mmHg 96%
    23:00 +8°C° 0.6 mm 4 mps 748 mmHg 96%

    11 June, Thursday

    Time Temperature Precipitation Wind Pressure Humidity
    00:00 +8°C° 0.6 mm 4 mps 747 mmHg 96%
    01:00 +10°C° 1.1 mm 4 mps 747 mmHg 96%
    02:00 +10°C° 1.1 mm 4 mps 746 mmHg 97%
    03:00 +10°C° 1.1 mm 4 mps 745 mmHg 97%
    04:00 +10°C° 1 mm 4 mps 745 mmHg 97%
    05:00 +9°C° 1 mm 5 mps 744 mmHg 97%
    06:00 +9°C° 1 mm 5 mps 744 mmHg 97%
    07:00 +9°C° 1.6 mm 5 mps 744 mmHg 96%
    08:00 +10°C° 1.6 mm 6 mps 743 mmHg 96%
    09:00 +10°C° 1.6 mm 7 mps 743 mmHg 95%
    10:00 +10°C° 1.9 mm 7 mps 743 mmHg 95%
    11:00 +10°C° 1.9 mm 8 mps 742 mmHg 94%
    12:00 +10°C° 1.9 mm 9 mps 742 mmHg 94%
    13:00 +10°C° 1.9 mm 8 mps 742 mmHg 94%
    14:00 +10°C° 1.9 mm 8 mps 742 mmHg 95%
    15:00 +10°C° 1.9 mm 8 mps 742 mmHg 95%
    16:00 +10°C° 0.6 mm 7 mps 742 mmHg 95%
    17:00 +11°C° 0.6 mm 6 mps 742 mmHg 94%
    18:00 +12°C° 0.6 mm 5 mps 742 mmHg 94%
    19:00 +11°C° 0.4 mm 4 mps 742 mmHg 94%
    20:00 +11°C° 0.4 mm 3 mps 742 mmHg 95%
    21:00 +11°C° 0.4 mm 3 mps 743 mmHg 95%
    22:00 +10°C° 0.1 mm 2 mps 743 mmHg 95%
    23:00 +9°C° 0.1 mm 2 mps 743 mmHg 95%

    12 June, Friday

    Time Temperature Precipitation Wind Pressure Humidity
    00:00 +10°C° 0.1 mm 1 mps 743 mmHg 96%
    01:00 +9°C° 0 mm 1 mps 743 mmHg 95%
    02:00 +9°C° 0 mm 1 mps 742 mmHg 95%
    03:00 +8°C° 0 mm 0 mps 742 mmHg 95%
    04:00 +10°C° 0 mm 1 mps 743 mmHg 94%
    05:00 +10°C° 0 mm 1 mps 743 mmHg 94%
    06:00 +11°C° 0 mm 1 mps 743 mmHg 93%
    07:00 +12°C° 0 mm 1 mps 743 mmHg 88%
    08:00 +14°C° 0 mm 1 mps 743 mmHg 83%
    09:00 +15°C° 0 mm 2 mps 743 mmHg 77%
    10:00 +16°C° 0.1 mm 2 mps 744 mmHg 75%
    11:00 +17°C° 0.1 mm 2 mps 744 mmHg 72%
    12:00 +18°C° 0.1 mm 2 mps 744 mmHg 69%
    13:00 +18°C° 0.6 mm 3 mps 744 mmHg 71%
    14:00 +18°C° 0.6 mm 3 mps 744 mmHg 72%
    15:00 +18°C° 0.6 mm 3 mps 745 mmHg 73%
    16:00 +18°C° 0.5 mm 3 mps 745 mmHg 76%
    17:00 +17°C° 0.5 mm 3 mps 745 mmHg 79%
    18:00 +17°C° 0.5 mm 3 mps 745 mmHg 83%
    19:00 +15°C° 0.1 mm 2 mps 746 mmHg 84%
    20:00 +13°C° 0.1 mm 2 mps 746 mmHg 85%
    21:00 +12°C° 0.1 mm 2 mps 746 mmHg 86%
    22:00 +11°C° 0 mm 1 mps 746 mmHg 87%
    23:00 +11°C° 0 mm 1 mps 746 mmHg 88%
    Show more